Tracking 29489 objects as of 9-Sep-2024
HD Live streaming from Space Station
objects crossing your sky now

COSMOS 1375 DEB

Track COSMOS 1375 DEB now!
10-day predictions


NORAD ID: 17806
Int'l Code: 1982-055AY
Perigee: 932.4 km
Apogee: 1,004.9 km
Inclination: 65.8 °
Period: 104.3 minutes
Semi major axis: 7339 km
RCS: 0.0072 m2 (small)
Launch date: June 6, 1982
Source: Commonwealth of Independent States (former USSR) (CIS)
Launch site: PLESETSK MISSILE AND SPACE COMPLEX (PKMTR)

Note: This is SATELLITE DEBRIS
Your satellite tracking list
Your tracking list is empty




NASA's NSSDC Master Catalog

Two Line Element Set (TLE):
1 17806U 82055AY  24253.17601589  .00000116  00000-0  18625-3 0  9998
2 17806  65.8322 246.9823 0049420 131.2814 307.2671 13.80674529957555
Source of the keplerian elements: AFSPC